owner,sensor,date,latitude,longitude,air_pressure(mBar),qcFlag 
COMPS,ioos:station:USF.COMPS:C12:1,2015-05-01T00:05:00Z,27.4980,-83.7220,1009.54,1111122 
COMPS,ioos:station:USF.COMPS:C12:1,2015-05-01T00:35:00Z,27.4980,-83.7220,1010.24,1111122 
COMPS,ioos:station:USF.COMPS:C12:1,2015-05-01T01:05:00Z,27.4980,-83.7220,1010.61,1111122 
COMPS,ioos:station:USF.COMPS:C12:1,2015-05-01T01:35:00Z,27.4980,-83.7220,1011.07,1111122 
COMPS,ioos:station:USF.COMPS:C12:1,2015-05-01T04:05:00Z,27.4980,-83.7220,1011.78,1111122 
COMPS,ioos:station:USF.COMPS:C12:1,2015-05-01T04:35:00Z,27.4980,-83.7220,1011.54,1111122 
COMPS,ioos:station:USF.COMPS:C12:1,2015-05-01T05:05:00Z,27.4980,-83.7220,1011.14,1111122 
COMPS,ioos:station:USF.COMPS:C12:1,2015-05-01T05:35:00Z,27.4980,-83.7220,1011.1,1111122 
COMPS,ioos:station:USF.COMPS:C12:1,2015-05-01T06:05:00Z,27.4980,-83.7220,1011.09,1111122 
COMPS,ioos:station:USF.COMPS:C12:1,2015-05-01T06:35:00Z,27.4980,-83.7220,1011.07,1111122 
COMPS,ioos:station:USF.COMPS:C12:1,2015-05-01T07:05:00Z,27.4980,-83.7220,1010.84,1111122 
COMPS,ioos:station:USF.COMPS:C12:1,2015-05-01T07:35:00Z,27.4980,-83.7220,1010.6,1111122 
COMPS,ioos:station:USF.COMPS:C12:1,2015-05-01T08:05:00Z,27.4980,-83.7220,1010.4,1111122 
COMPS,ioos:station:USF.COMPS:C12:1,2015-05-01T08:35:00Z,27.4980,-83.7220,1010.5,1111122 
COMPS,ioos:station:USF.COMPS:C12:1,2015-05-01T09:05:00Z,27.4980,-83.7220,1010.57,1111122 
COMPS,ioos:station:USF.COMPS:C12:1,2015-05-01T09:35:00Z,27.4980,-83.7220,1010.6,1111122 
COMPS,ioos:station:USF.COMPS:C12:1,2015-05-01T10:05:00Z,27.4980,-83.7220,1010.69,1111122 
COMPS,ioos:station:USF.COMPS:C12:1,2015-05-01T10:35:00Z,27.4980,-83.7220,1010.84,1111122 
COMPS,ioos:station:USF.COMPS:C12:1,2015-05-01T11:05:00Z,27.4980,-83.7220,1011.08,1111122 
COMPS,ioos:station:USF.COMPS:C12:1,2015-05-01T11:35:00Z,27.4980,-83.7220,1011.28,1111122 
COMPS,ioos:station:USF.COMPS:C12:1,2015-05-01T12:05:00Z,27.4980,-83.7220,1011.52,1111122 
COMPS,ioos:station:USF.COMPS:C12:1,2015-05-01T12:35:00Z,27.4980,-83.7220,1011.44,1111122 
COMPS,ioos:station:USF.COMPS:C12:1,2015-05-01T13:05:00Z,27.4980,-83.7220,1011.79,1111122 
COMPS,ioos:station:USF.COMPS:C12:1,2015-05-01T13:35:00Z,27.4980,-83.7220,1011.76,1111122 
COMPS,ioos:station:USF.COMPS:C12:1,2015-05-01T14:05:00Z,27.4980,-83.7220,1011.87,1111122 
COMPS,ioos:station:USF.COMPS:C12:1,2015-05-01T14:35:00Z,27.4980,-83.7220,1011.89,1111122 
COMPS,ioos:station:USF.COMPS:C12:1,2015-05-01T15:05:00Z,27.4980,-83.7220,1012.29,1111122 
COMPS,ioos:station:USF.COMPS:C12:1,2015-05-01T15:35:00Z,27.4980,-83.7220,1012.43,1111122 
COMPS,ioos:station:USF.COMPS:C12:1,2015-05-01T16:05:00Z,27.4980,-83.7220,1012.5,1111122 
COMPS,ioos:station:USF.COMPS:C12:1,2015-05-01T16:35:00Z,27.4980,-83.7220,1012.5,1111122 
COMPS,ioos:station:USF.COMPS:C12:1,2015-05-01T17:05:00Z,27.4980,-83.7220,1012.55,1111122 
COMPS,ioos:station:USF.COMPS:C12:1,2015-05-01T17:35:00Z,27.4980,-83.7220,1012.43,1111122 
COMPS,ioos:station:USF.COMPS:C12:1,2015-05-01T18:05:00Z,27.4980,-83.7220,1012.38,1111122 
COMPS,ioos:station:USF.COMPS:C12:1,2015-05-01T18:35:00Z,27.4980,-83.7220,1012.23,1111122 
COMPS,ioos:station:USF.COMPS:C12:1,2015-05-01T19:05:00Z,27.4980,-83.7220,1012.17,1111122 
COMPS,ioos:station:USF.COMPS:C12:1,2015-05-01T19:35:00Z,27.4980,-83.7220,1011.88,1111122 
COMPS,ioos:station:USF.COMPS:C12:1,2015-05-01T20:05:00Z,27.4980,-83.7220,1011.51,1111122 
COMPS,ioos:station:USF.COMPS:C12:1,2015-05-01T20:35:00Z,27.4980,-83.7220,1011.5,1111122 
COMPS,ioos:station:USF.COMPS:C12:1,2015-05-01T21:05:00Z,27.4980,-83.7220,1011.28,1111122 
COMPS,ioos:station:USF.COMPS:C12:1,2015-05-01T21:35:00Z,27.4980,-83.7220,1011.05,1111122 
COMPS,ioos:station:USF.COMPS:C12:1,2015-05-01T22:05:00Z,27.4980,-83.7220,1011.0,1111122 
COMPS,ioos:station:USF.COMPS:C12:1,2015-05-01T22:35:00Z,27.4980,-83.7220,1010.99,1111122 
COMPS,ioos:station:USF.COMPS:C12:1,2015-05-01T23:05:00Z,27.4980,-83.7220,1011.0,1111122 
COMPS,ioos:station:USF.COMPS:C12:1,2015-05-01T23:35:00Z,27.4980,-83.7220,1011.16,1111122 
COMPS,ioos:station:USF.COMPS:C12:1,2015-05-02T00:05:00Z,27.4980,-83.7220,1011.51,1111122 
COMPS,ioos:station:USF.COMPS:C12:1,2015-05-02T00:35:00Z,27.4980,-83.7220,1011.76,1111122 
COMPS,ioos:station:USF.COMPS:C12:1,2015-05-02T01:05:00Z,27.4980,-83.7220,1012.12,1111122 
COMPS,ioos:station:USF.COMPS:C12:1,2015-05-02T01:35:00Z,27.4980,-83.7220,1012.52,1111122 
COMPS,ioos:station:USF.COMPS:C12:1,2015-05-02T02:05:00Z,27.4980,-83.7220,1012.86,1111122 
COMPS,ioos:station:USF.COMPS:C12:1,2015-05-02T02:35:00Z,27.4980,-83.7220,1013.16,1111122 
COMPS,ioos:station:USF.COMPS:C12:1,2015-05-02T03:05:00Z,27.4980,-83.7220,1013.26,1111122 
COMPS,ioos:station:USF.COMPS:C12:1,2015-05-02T03:35:00Z,27.4980,-83.7220,1013.38,1111122 
COMPS,ioos:station:USF.COMPS:C12:1,2015-05-02T04:05:00Z,27.4980,-83.7220,1013.51,1111122 
COMPS,ioos:station:USF.COMPS:C12:1,2015-05-02T04:35:00Z,27.4980,-83.7220,1013.85,1111122 
COMPS,ioos:station:USF.COMPS:C12:1,2015-05-02T05:05:00Z,27.4980,-83.7220,1014.14,1111122 
COMPS,ioos:station:USF.COMPS:C12:1,2015-05-02T05:35:00Z,27.4980,-83.7220,1013.91,1111122 
COMPS,ioos:station:USF.COMPS:C12:1,2015-05-02T06:05:00Z,27.4980,-83.7220,1013.73,1111122 
COMPS,ioos:station:USF.COMPS:C12:1,2015-05-02T06:35:00Z,27.4980,-83.7220,1013.37,1111122 
COMPS,ioos:station:USF.COMPS:C12:1,2015-05-02T07:05:00Z,27.4980,-83.7220,1013.31,1111122 
COMPS,ioos:station:USF.COMPS:C12:1,2015-05-02T07:35:00Z,27.4980,-83.7220,1013.15,1111122 
COMPS,ioos:station:USF.COMPS:C12:1,2015-05-02T08:05:00Z,27.4980,-83.7220,1013.13,1111122 
COMPS,ioos:station:USF.COMPS:C12:1,2015-05-02T08:35:00Z,27.4980,-83.7220,1013.14,1111122 
COMPS,ioos:station:USF.COMPS:C12:1,2015-05-02T09:05:00Z,27.4980,-83.7220,1013.22,1111122 
COMPS,ioos:station:USF.COMPS:C12:1,2015-05-02T09:35:00Z,27.4980,-83.7220,1013.29,1111122 
COMPS,ioos:station:USF.COMPS:C12:1,2015-05-02T10:05:00Z,27.4980,-83.7220,1013.58,1111122 
COMPS,ioos:station:USF.COMPS:C12:1,2015-05-02T10:35:00Z,27.4980,-83.7220,1013.77,1111122 
COMPS,ioos:station:USF.COMPS:C12:1,2015-05-02T11:05:00Z,27.4980,-83.7220,1014.01,1111122 
COMPS,ioos:station:USF.COMPS:C12:1,2015-05-02T11:35:00Z,27.4980,-83.7220,1014.41,1111122 
COMPS,ioos:station:USF.COMPS:C12:1,2015-05-02T12:05:00Z,27.4980,-83.7220,1014.82,1111122 
COMPS,ioos:station:USF.COMPS:C12:1,2015-05-02T12:35:00Z,27.4980,-83.7220,1015.16,1111122 
COMPS,ioos:station:USF.COMPS:C12:1,2015-05-02T13:05:00Z,27.4980,-83.7220,1015.41,1111122 
COMPS,ioos:station:USF.COMPS:C12:1,2015-05-02T13:35:00Z,27.4980,-83.7220,1015.79,1111122 
COMPS,ioos:station:USF.COMPS:C12:1,2015-05-02T14:05:00Z,27.4980,-83.7220,1015.96,1111122 
COMPS,ioos:station:USF.COMPS:C12:1,2015-05-02T14:35:00Z,27.4980,-83.7220,1016.33,1111122 
COMPS,ioos:station:USF.COMPS:C12:1,2015-05-02T15:05:00Z,27.4980,-83.7220,1016.39,1111122 
COMPS,ioos:station:USF.COMPS:C12:1,2015-05-02T15:35:00Z,27.4980,-83.7220,1016.48,1111122 
COMPS,ioos:station:USF.COMPS:C12:1,2015-05-02T16:05:00Z,27.4980,-83.7220,1016.56,1111122 
COMPS,ioos:station:USF.COMPS:C12:1,2015-05-02T16:35:00Z,27.4980,-83.7220,1016.66,1111122 
COMPS,ioos:station:USF.COMPS:C12:1,2015-05-02T17:05:00Z,27.4980,-83.7220,1016.52,1111122 
COMPS,ioos:station:USF.COMPS:C12:1,2015-05-02T17:35:00Z,27.4980,-83.7220,1016.52,1111122 
COMPS,ioos:station:USF.COMPS:C12:1,2015-05-02T18:05:00Z,27.4980,-83.7220,1016.54,1111122 
COMPS,ioos:station:USF.COMPS:C12:1,2015-05-02T18:35:00Z,27.4980,-83.7220,1016.13,1111122 
COMPS,ioos:station:USF.COMPS:C12:1,2015-05-02T19:05:00Z,27.4980,-83.7220,1016.01,1111122 
COMPS,ioos:station:USF.COMPS:C12:1,2015-05-02T19:35:00Z,27.4980,-83.7220,1015.65,1111122 
COMPS,ioos:station:USF.COMPS:C12:1,2015-05-02T20:05:00Z,27.4980,-83.7220,1015.29,1111122 
COMPS,ioos:station:USF.COMPS:C12:1,2015-05-02T20:35:00Z,27.4980,-83.7220,1015.14,1111122 
COMPS,ioos:station:USF.COMPS:C12:1,2015-05-02T21:05:00Z,27.4980,-83.7220,1014.89,1111122 
COMPS,ioos:station:USF.COMPS:C12:1,2015-05-02T21:35:00Z,27.4980,-83.7220,1014.78,1111122 
COMPS,ioos:station:USF.COMPS:C12:1,2015-05-02T22:05:00Z,27.4980,-83.7220,1014.79,1111122 
COMPS,ioos:station:USF.COMPS:C12:1,2015-05-02T22:35:00Z,27.4980,-83.7220,1014.73,1111122 
COMPS,ioos:station:USF.COMPS:C12:1,2015-05-02T23:05:00Z,27.4980,-83.7220,1014.67,1111122 
COMPS,ioos:station:USF.COMPS:C12:1,2015-05-02T23:35:00Z,27.4980,-83.7220,1014.57,1111122 
COMPS,ioos:station:USF.COMPS:C12:1,2015-05-03T00:05:00Z,27.4980,-83.7220,1014.62,1111122 
COMPS,ioos:station:USF.COMPS:C12:1,2015-05-03T00:35:00Z,27.4980,-83.7220,1014.81,1111122 
COMPS,ioos:station:USF.COMPS:C12:1,2015-05-03T01:05:00Z,27.4980,-83.7220,1015.16,1111122 
COMPS,ioos:station:USF.COMPS:C12:1,2015-05-03T01:35:00Z,27.4980,-83.7220,1015.28,1111122 
COMPS,ioos:station:USF.COMPS:C12:1,2015-05-03T02:05:00Z,27.4980,-83.7220,1015.4,1111122 
COMPS,ioos:station:USF.COMPS:C12:1,2015-05-03T02:35:00Z,27.4980,-83.7220,1015.67,1111122 
COMPS,ioos:station:USF.COMPS:C12:1,2015-05-03T04:05:00Z,27.4980,-83.7220,1015.78,1111122 
COMPS,ioos:station:USF.COMPS:C12:1,2015-05-03T04:35:00Z,27.4980,-83.7220,1015.74,1111122 
COMPS,ioos:station:USF.COMPS:C12:1,2015-05-03T05:05:00Z,27.4980,-83.7220,1015.97,1111122 
COMPS,ioos:station:USF.COMPS:C12:1,2015-05-03T05:35:00Z,27.4980,-83.7220,1015.98,1111122 
COMPS,ioos:station:USF.COMPS:C12:1,2015-05-03T06:05:00Z,27.4980,-83.7220,1015.86,1111122 
COMPS,ioos:station:USF.COMPS:C12:1,2015-05-03T06:35:00Z,27.4980,-83.7220,1015.64,1111122 
COMPS,ioos:station:USF.COMPS:C12:1,2015-05-03T07:05:00Z,27.4980,-83.7220,1015.65,1111122 
COMPS,ioos:station:USF.COMPS:C12:1,2015-05-03T07:35:00Z,27.4980,-83.7220,1015.61,1111122 
COMPS,ioos:station:USF.COMPS:C12:1,2015-05-03T08:05:00Z,27.4980,-83.7220,1015.61,1111122 
COMPS,ioos:station:USF.COMPS:C12:1,2015-05-03T08:35:00Z,27.4980,-83.7220,1015.51,1111122 
COMPS,ioos:station:USF.COMPS:C12:1,2015-05-03T09:05:00Z,27.4980,-83.7220,1015.65,1111122 
COMPS,ioos:station:USF.COMPS:C12:1,2015-05-03T09:35:00Z,27.4980,-83.7220,1015.61,1111122 
COMPS,ioos:station:USF.COMPS:C12:1,2015-05-03T10:05:00Z,27.4980,-83.7220,1015.75,1111122 
COMPS,ioos:station:USF.COMPS:C12:1,2015-05-03T10:35:00Z,27.4980,-83.7220,1015.98,1111122 
COMPS,ioos:station:USF.COMPS:C12:1,2015-05-03T11:05:00Z,27.4980,-83.7220,1016.16,1111122 
COMPS,ioos:station:USF.COMPS:C12:1,2015-05-03T11:35:00Z,27.4980,-83.7220,1016.56,1111122 
COMPS,ioos:station:USF.COMPS:C12:1,2015-05-03T12:05:00Z,27.4980,-83.7220,1016.95,1111122 
COMPS,ioos:station:USF.COMPS:C12:1,2015-05-03T12:35:00Z,27.4980,-83.7220,1017.3,1111122 
COMPS,ioos:station:USF.COMPS:C12:1,2015-05-03T13:05:00Z,27.4980,-83.7220,1017.44,1111122 
COMPS,ioos:station:USF.COMPS:C12:1,2015-05-03T13:35:00Z,27.4980,-83.7220,1017.58,1111122 
COMPS,ioos:station:USF.COMPS:C12:1,2015-05-03T14:05:00Z,27.4980,-83.7220,1017.9,1111122 
COMPS,ioos:station:USF.COMPS:C12:1,2015-05-03T14:35:00Z,27.4980,-83.7220,1018.22,1111122 
COMPS,ioos:station:USF.COMPS:C12:1,2015-05-03T15:05:00Z,27.4980,-83.7220,1018.31,1111122 
COMPS,ioos:station:USF.COMPS:C12:1,2015-05-03T15:35:00Z,27.4980,-83.7220,1018.65,1111122 
COMPS,ioos:station:USF.COMPS:C12:1,2015-05-03T16:05:00Z,27.4980,-83.7220,1018.7,1111122 
COMPS,ioos:station:USF.COMPS:C12:1,2015-05-03T16:35:00Z,27.4980,-83.7220,1018.66,1111122 
COMPS,ioos:station:USF.COMPS:C12:1,2015-05-03T17:05:00Z,27.4980,-83.7220,1018.5,1111122 
COMPS,ioos:station:USF.COMPS:C12:1,2015-05-03T17:35:00Z,27.4980,-83.7220,1018.39,1111122 
COMPS,ioos:station:USF.COMPS:C12:1,2015-05-03T18:05:00Z,27.4980,-83.7220,1018.07,1111122 
COMPS,ioos:station:USF.COMPS:C12:1,2015-05-03T18:35:00Z,27.4980,-83.7220,1017.93,1111122 
COMPS,ioos:station:USF.COMPS:C12:1,2015-05-03T19:05:00Z,27.4980,-83.7220,1017.62,1111122 
COMPS,ioos:station:USF.COMPS:C12:1,2015-05-03T19:35:00Z,27.4980,-83.7220,1017.4,1111122 
COMPS,ioos:station:USF.COMPS:C12:1,2015-05-03T20:05:00Z,27.4980,-83.7220,1017.1,1111122 
COMPS,ioos:station:USF.COMPS:C12:1,2015-05-03T20:35:00Z,27.4980,-83.7220,1016.87,1111122 
COMPS,ioos:station:USF.COMPS:C12:1,2015-05-03T21:05:00Z,27.4980,-83.7220,1016.65,1111122 
COMPS,ioos:station:USF.COMPS:C12:1,2015-05-03T21:35:00Z,27.4980,-83.7220,1016.43,1111122 
COMPS,ioos:station:USF.COMPS:C12:1,2015-05-03T22:05:00Z,27.4980,-83.7220,1016.41,1111122 
COMPS,ioos:station:USF.COMPS:C12:1,2015-05-03T22:35:00Z,27.4980,-83.7220,1016.41,1111122 
COMPS,ioos:station:USF.COMPS:C12:1,2015-05-03T23:05:00Z,27.4980,-83.7220,1016.42,1111122 
COMPS,ioos:station:USF.COMPS:C12:1,2015-05-03T23:35:00Z,27.4980,-83.7220,1016.58,1111122 
COMPS,ioos:station:USF.COMPS:C12:1,2015-05-04T00:05:00Z,27.4980,-83.7220,1016.74,1111122 
COMPS,ioos:station:USF.COMPS:C12:1,2015-05-04T00:35:00Z,27.4980,-83.7220,1016.92,1111122 
COMPS,ioos:station:USF.COMPS:C12:1,2015-05-04T01:05:00Z,27.4980,-83.7220,1017.17,1111122 
COMPS,ioos:station:USF.COMPS:C12:1,2015-05-04T01:35:00Z,27.4980,-83.7220,1017.3,1111122 
COMPS,ioos:station:USF.COMPS:C12:1,2015-05-04T02:05:00Z,27.4980,-83.7220,1017.44,1111122 
COMPS,ioos:station:USF.COMPS:C12:1,2015-05-04T02:35:00Z,27.4980,-83.7220,1017.43,1111122 
COMPS,ioos:station:USF.COMPS:C12:1,2015-05-04T03:05:00Z,27.4980,-83.7220,1017.41,1111122 
COMPS,ioos:station:USF.COMPS:C12:1,2015-05-04T03:35:00Z,27.4980,-83.7220,1017.63,1111122 
COMPS,ioos:station:USF.COMPS:C12:1,2015-05-04T04:05:00Z,27.4980,-83.7220,1017.65,1111122 
COMPS,ioos:station:USF.COMPS:C12:1,2015-05-04T04:35:00Z,27.4980,-83.7220,1017.87,1111122 
COMPS,ioos:station:USF.COMPS:C12:1,2015-05-04T05:05:00Z,27.4980,-83.7220,1017.88,1111122 
COMPS,ioos:station:USF.COMPS:C12:1,2015-05-04T05:35:00Z,27.4980,-83.7220,1017.91,1111122 
COMPS,ioos:station:USF.COMPS:C12:1,2015-05-04T06:05:00Z,27.4980,-83.7220,1017.94,1111122 
COMPS,ioos:station:USF.COMPS:C12:1,2015-05-04T06:35:00Z,27.4980,-83.7220,1018.06,1111122 
COMPS,ioos:station:USF.COMPS:C12:1,2015-05-04T07:05:00Z,27.4980,-83.7220,1017.87,1111122 
COMPS,ioos:station:USF.COMPS:C12:1,2015-05-04T07:35:00Z,27.4980,-83.7220,1017.79,1111122 
COMPS,ioos:station:USF.COMPS:C12:1,2015-05-04T08:05:00Z,27.4980,-83.7220,1017.8,1111122 
COMPS,ioos:station:USF.COMPS:C12:1,2015-05-04T08:35:00Z,27.4980,-83.7220,1017.72,1111122 
COMPS,ioos:station:USF.COMPS:C12:1,2015-05-04T09:05:00Z,27.4980,-83.7220,1017.76,1111122 
COMPS,ioos:station:USF.COMPS:C12:1,2015-05-04T09:35:00Z,27.4980,-83.7220,1017.84,1111122 
COMPS,ioos:station:USF.COMPS:C12:1,2015-05-04T10:05:00Z,27.4980,-83.7220,1017.9,1111122 
COMPS,ioos:station:USF.COMPS:C12:1,2015-05-04T10:35:00Z,27.4980,-83.7220,1018.24,1111122 
COMPS,ioos:station:USF.COMPS:C12:1,2015-05-04T11:05:00Z,27.4980,-83.7220,1018.33,1111122 
COMPS,ioos:station:USF.COMPS:C12:1,2015-05-04T11:35:00Z,27.4980,-83.7220,1018.69,1111122 
COMPS,ioos:station:USF.COMPS:C12:1,2015-05-04T12:05:00Z,27.4980,-83.7220,1019.06,1111122 
COMPS,ioos:station:USF.COMPS:C12:1,2015-05-04T12:35:00Z,27.4980,-83.7220,1019.22,1111122 
COMPS,ioos:station:USF.COMPS:C12:1,2015-05-04T13:05:00Z,27.4980,-83.7220,1019.4,1111122 
COMPS,ioos:station:USF.COMPS:C12:1,2015-05-04T13:35:00Z,27.4980,-83.7220,1019.73,1111122 
COMPS,ioos:station:USF.COMPS:C12:1,2015-05-04T14:05:00Z,27.4980,-83.7220,1019.84,1111122 
COMPS,ioos:station:USF.COMPS:C12:1,2015-05-04T14:35:00Z,27.4980,-83.7220,1020.25,1111122 
COMPS,ioos:station:USF.COMPS:C12:1,2015-05-04T15:05:00Z,27.4980,-83.7220,1020.53,1111122 
COMPS,ioos:station:USF.COMPS:C12:1,2015-05-04T15:35:00Z,27.4980,-83.7220,1020.59,1111122 
COMPS,ioos:station:USF.COMPS:C12:1,2015-05-04T16:05:00Z,27.4980,-83.7220,1020.63,1111122 
COMPS,ioos:station:USF.COMPS:C12:1,2015-05-04T16:35:00Z,27.4980,-83.7220,1020.71,1111122 
COMPS,ioos:station:USF.COMPS:C12:1,2015-05-04T17:05:00Z,27.4980,-83.7220,1020.57,1111122 
COMPS,ioos:station:USF.COMPS:C12:1,2015-05-04T17:35:00Z,27.4980,-83.7220,1020.11,1111122 
COMPS,ioos:station:USF.COMPS:C12:1,2015-05-04T18:05:00Z,27.4980,-83.7220,1019.7,1111122 
COMPS,ioos:station:USF.COMPS:C12:1,2015-05-04T18:35:00Z,27.4980,-83.7220,1019.51,1111122 
COMPS,ioos:station:USF.COMPS:C12:1,2015-05-04T19:05:00Z,27.4980,-83.7220,1019.24,1111122 
COMPS,ioos:station:USF.COMPS:C12:1,2015-05-04T19:35:00Z,27.4980,-83.7220,1019.08,1111122 
COMPS,ioos:station:USF.COMPS:C12:1,2015-05-04T20:05:00Z,27.4980,-83.7220,1018.62,1111122 
COMPS,ioos:station:USF.COMPS:C12:1,2015-05-04T20:35:00Z,27.4980,-83.7220,1018.56,1111122 
COMPS,ioos:station:USF.COMPS:C12:1,2015-05-04T21:05:00Z,27.4980,-83.7220,1018.32,1111122 
COMPS,ioos:station:USF.COMPS:C12:1,2015-05-04T21:35:00Z,27.4980,-83.7220,1018.31,1111122 
COMPS,ioos:station:USF.COMPS:C12:1,2015-05-04T22:05:00Z,27.4980,-83.7220,1018.13,1111122 
COMPS,ioos:station:USF.COMPS:C12:1,2015-05-04T22:35:00Z,27.4980,-83.7220,1018.17,1111122 
COMPS,ioos:station:USF.COMPS:C12:1,2015-05-04T23:05:00Z,27.4980,-83.7220,1018.1,1111122 
COMPS,ioos:station:USF.COMPS:C12:1,2015-05-04T23:35:00Z,27.4980,-83.7220,1018.1,1111122 
COMPS,ioos:station:USF.COMPS:C12:1,2015-05-05T00:05:00Z,27.4980,-83.7220,1018.33,1111122 
COMPS,ioos:station:USF.COMPS:C12:1,2015-05-05T00:35:00Z,27.4980,-83.7220,1018.6,1111122 
COMPS,ioos:station:USF.COMPS:C12:1,2015-05-05T01:05:00Z,27.4980,-83.7220,1018.63,1111122 
COMPS,ioos:station:USF.COMPS:C12:1,2015-05-05T01:35:00Z,27.4980,-83.7220,1018.63,1111122 
COMPS,ioos:station:USF.COMPS:C12:1,2015-05-05T02:05:00Z,27.4980,-83.7220,1018.82,1111122 
COMPS,ioos:station:USF.COMPS:C12:1,2015-05-05T02:35:00Z,27.4980,-83.7220,1018.84,1111122 
COMPS,ioos:station:USF.COMPS:C12:1,2015-05-05T04:05:00Z,27.4980,-83.7220,1019.18,1111122 
COMPS,ioos:station:USF.COMPS:C12:1,2015-05-05T04:35:00Z,27.4980,-83.7220,1019.19,1111122 
COMPS,ioos:station:USF.COMPS:C12:1,2015-05-05T05:05:00Z,27.4980,-83.7220,1019.12,1111122 
COMPS,ioos:station:USF.COMPS:C12:1,2015-05-05T05:35:00Z,27.4980,-83.7220,1018.86,1111122 
COMPS,ioos:station:USF.COMPS:C12:1,2015-05-05T06:05:00Z,27.4980,-83.7220,1018.59,1111122 
COMPS,ioos:station:USF.COMPS:C12:1,2015-05-05T06:35:00Z,27.4980,-83.7220,1018.03,1111122 
COMPS,ioos:station:USF.COMPS:C12:1,2015-05-05T07:05:00Z,27.4980,-83.7220,1017.78,1111122 
COMPS,ioos:station:USF.COMPS:C12:1,2015-05-05T07:35:00Z,27.4980,-83.7220,1017.43,1111122 
COMPS,ioos:station:USF.COMPS:C12:1,2015-05-05T08:05:00Z,27.4980,-83.7220,1017.45,1111122 
COMPS,ioos:station:USF.COMPS:C12:1,2015-05-05T08:35:00Z,27.4980,-83.7220,1017.36,1111122 
COMPS,ioos:station:USF.COMPS:C12:1,2015-05-05T09:05:00Z,27.4980,-83.7220,1017.28,1111122 
COMPS,ioos:station:USF.COMPS:C12:1,2015-05-05T09:35:00Z,27.4980,-83.7220,1017.44,1111122 
COMPS,ioos:station:USF.COMPS:C12:1,2015-05-05T10:05:00Z,27.4980,-83.7220,1017.61,1111122 
COMPS,ioos:station:USF.COMPS:C12:1,2015-05-05T10:35:00Z,27.4980,-83.7220,1017.71,1111122 
COMPS,ioos:station:USF.COMPS:C12:1,2015-05-05T11:05:00Z,27.4980,-83.7220,1017.85,1111122 
COMPS,ioos:station:USF.COMPS:C12:1,2015-05-05T11:35:00Z,27.4980,-83.7220,1018.1,1111122 
COMPS,ioos:station:USF.COMPS:C12:1,2015-05-05T12:05:00Z,27.4980,-83.7220,1018.29,1111122 
COMPS,ioos:station:USF.COMPS:C12:1,2015-05-05T12:35:00Z,27.4980,-83.7220,1018.58,1111122 
COMPS,ioos:station:USF.COMPS:C12:1,2015-05-05T13:05:00Z,27.4980,-83.7220,1018.68,1111122 
COMPS,ioos:station:USF.COMPS:C12:1,2015-05-05T13:35:00Z,27.4980,-83.7220,1018.91,1111122 
COMPS,ioos:station:USF.COMPS:C12:1,2015-05-05T14:05:00Z,27.4980,-83.7220,1018.98,1111122 
COMPS,ioos:station:USF.COMPS:C12:1,2015-05-05T14:35:00Z,27.4980,-83.7220,1019.1,1111122 
COMPS,ioos:station:USF.COMPS:C12:1,2015-05-05T15:05:00Z,27.4980,-83.7220,1019.02,1111122 
COMPS,ioos:station:USF.COMPS:C12:1,2015-05-05T15:35:00Z,27.4980,-83.7220,1018.8,1111122 
COMPS,ioos:station:USF.COMPS:C12:1,2015-05-05T16:05:00Z,27.4980,-83.7220,1018.66,1111122 
COMPS,ioos:station:USF.COMPS:C12:1,2015-05-05T16:35:00Z,27.4980,-83.7220,1018.67,1111122 
COMPS,ioos:station:USF.COMPS:C12:1,2015-05-05T17:05:00Z,27.4980,-83.7220,1018.46,1111122 
COMPS,ioos:station:USF.COMPS:C12:1,2015-05-05T17:35:00Z,27.4980,-83.7220,1018.22,1111122 
COMPS,ioos:station:USF.COMPS:C12:1,2015-05-05T18:05:00Z,27.4980,-83.7220,1017.81,1111122 
COMPS,ioos:station:USF.COMPS:C12:1,2015-05-05T18:35:00Z,27.4980,-83.7220,1017.53,1111122 
COMPS,ioos:station:USF.COMPS:C12:1,2015-05-05T19:05:00Z,27.4980,-83.7220,1017.41,1111122 
COMPS,ioos:station:USF.COMPS:C12:1,2015-05-05T19:35:00Z,27.4980,-83.7220,1017.21,1111122 
COMPS,ioos:station:USF.COMPS:C12:1,2015-05-05T20:05:00Z,27.4980,-83.7220,1016.72,1111122 
COMPS,ioos:station:USF.COMPS:C12:1,2015-05-05T20:35:00Z,27.4980,-83.7220,1016.4,1111122 
COMPS,ioos:station:USF.COMPS:C12:1,2015-05-05T21:05:00Z,27.4980,-83.7220,1016.01,1111122 
COMPS,ioos:station:USF.COMPS:C12:1,2015-05-05T21:35:00Z,27.4980,-83.7220,1015.89,1111122 
COMPS,ioos:station:USF.COMPS:C12:1,2015-05-05T22:05:00Z,27.4980,-83.7220,1015.71,1111122 
COMPS,ioos:station:USF.COMPS:C12:1,2015-05-05T22:35:00Z,27.4980,-83.7220,1015.6,1111122 
COMPS,ioos:station:USF.COMPS:C12:1,2015-05-05T23:05:00Z,27.4980,-83.7220,1015.83,1111122 
COMPS,ioos:station:USF.COMPS:C12:1,2015-05-05T23:35:00Z,27.4980,-83.7220,1015.82,1111122 
COMPS,ioos:station:USF.COMPS:C12:1,2015-05-06T00:05:00Z,27.4980,-83.7220,1015.98,1111122 
COMPS,ioos:station:USF.COMPS:C12:1,2015-05-06T00:35:00Z,27.4980,-83.7220,1015.98,1111122 
COMPS,ioos:station:USF.COMPS:C12:1,2015-05-06T01:05:00Z,27.4980,-83.7220,1016.33,1111122 
COMPS,ioos:station:USF.COMPS:C12:1,2015-05-06T01:35:00Z,27.4980,-83.7220,1016.48,1111122 
COMPS,ioos:station:USF.COMPS:C12:1,2015-05-06T02:05:00Z,27.4980,-83.7220,1016.8,1111122 
COMPS,ioos:station:USF.COMPS:C12:1,2015-05-06T02:35:00Z,27.4980,-83.7220,1016.75,1111122 
COMPS,ioos:station:USF.COMPS:C12:1,2015-05-06T04:05:00Z,27.4980,-83.7220,1017.14,1111122 
COMPS,ioos:station:USF.COMPS:C12:1,2015-05-06T04:35:00Z,27.4980,-83.7220,1017.15,1111122 
COMPS,ioos:station:USF.COMPS:C12:1,2015-05-06T05:05:00Z,27.4980,-83.7220,1017.06,1111122 
COMPS,ioos:station:USF.COMPS:C12:1,2015-05-06T05:35:00Z,27.4980,-83.7220,1016.74,1111122 
COMPS,ioos:station:USF.COMPS:C12:1,2015-05-06T06:05:00Z,27.4980,-83.7220,1016.41,1111122 
COMPS,ioos:station:USF.COMPS:C12:1,2015-05-06T06:35:00Z,27.4980,-83.7220,1016.02,1111122 
COMPS,ioos:station:USF.COMPS:C12:1,2015-05-06T07:05:00Z,27.4980,-83.7220,1015.72,1111122 
COMPS,ioos:station:USF.COMPS:C12:1,2015-05-06T07:35:00Z,27.4980,-83.7220,1015.62,1111122 
COMPS,ioos:station:USF.COMPS:C12:1,2015-05-06T08:05:00Z,27.4980,-83.7220,1015.7,1111122 
COMPS,ioos:station:USF.COMPS:C12:1,2015-05-06T08:35:00Z,27.4980,-83.7220,1015.63,1111122 
COMPS,ioos:station:USF.COMPS:C12:1,2015-05-06T09:05:00Z,27.4980,-83.7220,1015.46,1111122 
COMPS,ioos:station:USF.COMPS:C12:1,2015-05-06T09:35:00Z,27.4980,-83.7220,1015.36,1111122 
COMPS,ioos:station:USF.COMPS:C12:1,2015-05-06T10:05:00Z,27.4980,-83.7220,1015.24,1111122 
COMPS,ioos:station:USF.COMPS:C12:1,2015-05-06T10:35:00Z,27.4980,-83.7220,1015.25,1111122 
COMPS,ioos:station:USF.COMPS:C12:1,2015-05-06T11:05:00Z,27.4980,-83.7220,1015.39,1111122 
COMPS,ioos:station:USF.COMPS:C12:1,2015-05-06T11:35:00Z,27.4980,-83.7220,1015.68,1111122 
COMPS,ioos:station:USF.COMPS:C12:1,2015-05-06T12:05:00Z,27.4980,-83.7220,1015.89,1111122 
COMPS,ioos:station:USF.COMPS:C12:1,2015-05-06T12:35:00Z,27.4980,-83.7220,1015.96,1111122 
COMPS,ioos:station:USF.COMPS:C12:1,2015-05-06T13:05:00Z,27.4980,-83.7220,1015.95,1111122 
COMPS,ioos:station:USF.COMPS:C12:1,2015-05-06T13:35:00Z,27.4980,-83.7220,1015.97,1111122 
COMPS,ioos:station:USF.COMPS:C12:1,2015-05-06T14:05:00Z,27.4980,-83.7220,1016.21,1111122 
COMPS,ioos:station:USF.COMPS:C12:1,2015-05-06T14:35:00Z,27.4980,-83.7220,1016.39,1111122 
COMPS,ioos:station:USF.COMPS:C12:1,2015-05-06T15:05:00Z,27.4980,-83.7220,1016.46,1111122 
COMPS,ioos:station:USF.COMPS:C12:1,2015-05-06T15:35:00Z,27.4980,-83.7220,1016.5,1111122 
COMPS,ioos:station:USF.COMPS:C12:1,2015-05-06T16:05:00Z,27.4980,-83.7220,1016.77,1111122 
COMPS,ioos:station:USF.COMPS:C12:1,2015-05-06T16:35:00Z,27.4980,-83.7220,1016.86,1111122 
COMPS,ioos:station:USF.COMPS:C12:1,2015-05-06T17:05:00Z,27.4980,-83.7220,1016.56,1111122 
COMPS,ioos:station:USF.COMPS:C12:1,2015-05-06T17:35:00Z,27.4980,-83.7220,1016.38,1111122 